Anchorage Merrill, AK

5:52 PM AKDT on April 28, 2017 (GMT -0800)
Merrill

Weather History for PAMR - January, 2011

Change the Weather History Date:

Thursday, January 27, 2011

  Actual Average Record
Temperature  
Mean Temperature 21 °F -  
Max Temperature 30 °F 22 °F 44 °F (2016)
Min Temperature 12 °F 9 °F -14 °F (2012)
Degree Days  
Heating Degree Days 44    
Moisture  
Dew Point 17 °F    
Average Humidity 77    
Maximum Humidity 84    
Minimum Humidity 67    
Precipitation  
Precipitation 0.00 in - - ()
Snow  
Snow 0.00 in - - ()
Snow Depth 5.00 in    
Sea Level Pressure  
Sea Level Pressure 30.08 in    
Wind  
Wind Speed 1 mph (East)    
Max Wind Speed 5 mph    
Max Gust Speed -    
Visibility 10 miles    
Events      
Averages and records for this station are not official NWS values.
T = Trace of Precipitation, MM = Missing Value Source: NWS Daily Summary

Daily Weather History Graph

Daily Weather History Graph

Search for Another Location

Airport or City:

Trip Planner

Search our weather history database for the weather conditions in past years. The results will help you decide how hot, cold, wet, or windy it might be!

Date:

Astronomy

Jan. 27, 2011 Rise Set
Actual Time 9:32 AM AKST 4:52 PM AKST
Civil Twilight 8:40 AM AKST 5:44 PM AKST
Nautical Twilight 7:46 AM AKST 6:38 PM AKST
Astronomical Twilight 6:56 AM AKST 7:29 PM AKST
Moon 4:42 AM AKST (1/27) 10:45 AM AKST (1/27)
Length of Visible Light 9h 03m
Length of Day
7h 20m
Waning Crescent, 36% of the Moon is Illuminated
Jan 27
Waning Crescent
Feb 2
New
Feb 10
First Quarter
Feb 17
Full
Feb 24
Last Quarter

Hourly Weather History & Observations

Time (AKST) Temp. Windchill Dew Point Humidity Pressure Visibility Wind Dir Wind Speed Gust Speed Precip Events Conditions
12:53 AM 30.0 °F 26.5 °F 21.9 °F 72% 29.78 in 10.0 mi SSE 3.5 mph - N/A   Overcast
1:53 AM 28.9 °F 25.2 °F 21.9 °F 75% 29.83 in 10.0 mi SE 3.5 mph - N/A   Overcast
2:53 AM 28.9 °F - 21.9 °F 75% 29.86 in 10.0 mi Calm Calm - N/A   Overcast
3:32 AM 30.2 °F - 21.2 °F 69% 29.88 in 10.0 mi Calm Calm - N/A   Overcast
3:53 AM 30.0 °F - 21.9 °F 72% 29.90 in 10.0 mi Calm Calm - N/A   Overcast
4:43 AM 28.4 °F - 21.2 °F 74% 29.93 in 10.0 mi Calm Calm - N/A   Overcast
4:53 AM 28.9 °F - 21.0 °F 72% 29.94 in 10.0 mi Calm Calm - N/A   Overcast
5:53 AM 28.0 °F - 21.0 °F 75% 29.97 in 10.0 mi Calm Calm - N/A   Overcast
6:53 AM 12.9 °F - 9.0 °F 84% 29.99 in 10.0 mi Calm Calm - N/A   Mostly Cloudy
7:53 AM 19.9 °F - 14.0 °F 78% 30.02 in 10.0 mi North - - N/A   Clear
8:53 AM 18.0 °F - 12.9 °F 81% 30.05 in 10.0 mi North - - N/A   Scattered Clouds
9:53 AM 18.0 °F 11.1 °F 14.0 °F 84% 30.08 in 10.0 mi ENE 4.6 mph - N/A   Partly Cloudy
10:53 AM 18.0 °F - 12.9 °F 81% 30.11 in 10.0 mi Calm Calm - N/A   Scattered Clouds
11:53 AM 19.9 °F 14.9 °F 14.0 °F 78% 30.14 in 10.0 mi East 3.5 mph - N/A   Clear
12:53 PM 26.1 °F - 18.0 °F 71% 30.15 in 10.0 mi Calm Calm - N/A   Clear
1:53 PM 28.9 °F - 19.0 °F 67% 30.17 in 10.0 mi Calm Calm - N/A   Mostly Cloudy
2:53 PM 30.0 °F 26.5 °F 21.9 °F 72% 30.18 in 10.0 mi NE 3.5 mph - N/A   Mostly Cloudy
3:53 PM 28.9 °F 25.2 °F 21.0 °F 72% 30.18 in 10.0 mi NNE 3.5 mph - N/A   Scattered Clouds
4:53 PM 28.0 °F - 21.0 °F 75% 30.19 in 10.0 mi Calm Calm - N/A   Mostly Cloudy
5:53 PM 24.1 °F - 19.0 °F 81% 30.21 in 10.0 mi Calm Calm - N/A   Partly Cloudy
6:53 PM 23.0 °F - 18.0 °F 81% 30.22 in 10.0 mi Calm Calm - N/A   Scattered Clouds
7:53 PM 18.0 °F - 14.0 °F 84% 30.23 in 10.0 mi Calm Calm - N/A   Clear
8:53 PM 18.0 °F - 12.9 °F 81% 30.24 in 10.0 mi Calm Calm - N/A   Scattered Clouds
9:53 PM 16.0 °F 10.4 °F 10.0 °F 77% 30.25 in 10.0 mi East 3.5 mph - N/A   Scattered Clouds
10:53 PM 21.0 °F - 16.0 °F 81% 30.25 in 10.0 mi Calm Calm - N/A   Scattered Clouds
11:53 PM 18.0 °F - 14.0 °F 84% 30.24 in 10.0 mi Calm Calm - N/A   Scattered Clouds